Scottsbluff, NE

8:32 AM MDT on October 15, 2019 (GMT -0600)
Heilig

Weather History for KBFF - August, 2019

Change the Weather History Date:

Saturday, August 17, 2019

  Actual Average Record
Temperature  
Mean Temperature 73 °F -  
Max Temperature 91 °F 86 °F 99 °F (1924)
Min Temperature 55 °F 57 °F 44 °F (1960)
Cooling Degree Days 8    
Growing Degree Days 23 (Base 50)    
Moisture  
Dew Point 56 °F    
Average Humidity 75    
Maximum Humidity 100    
Minimum Humidity 19    
Precipitation  
Precipitation 0.00 in - - ()
Sea Level Pressure  
Sea Level Pressure 29.73 in    
Wind  
Wind Speed 6 mph (NW)    
Max Wind Speed 28 mph    
Max Gust Speed 40 mph    
Visibility 7 miles    
Events Fog , Rain    
Averages and records for this station are not official NWS values.
T = Trace of Precipitation, MM = Missing Value Source: NWS Daily Summary

Daily Weather History Graph

Daily Weather History Graph

Search for Another Location

Airport or City:

Astronomy

Aug. 17, 2019 Rise Set
Actual Time 6:04 AM MDT 7:51 PM MDT
Civil Twilight 5:34 AM MDT 8:21 PM MDT
Nautical Twilight 4:58 AM MDT 8:57 PM MDT
Astronomical Twilight 4:19 AM MDT 9:36 PM MDT
Moon 9:19 PM MDT (8/17) 7:56 AM MDT (8/17)
Length of Visible Light 14h 46m
Length of Day
13h 47m
Waning Gibbous, 96% of the Moon is Illuminated
Aug 17
Waning Gibbous
Aug 23
Last Quarter
Aug 30
New
Sep 5
First Quarter
Sep 13
Full

Hourly Weather History & Observations

Time (MDT) Temp. Heat Index Dew Point Humidity Pressure Visibility Wind Dir Wind Speed Gust Speed Precip Events Conditions
12:53 AM 63.0 °F - 60.1 °F 90% 29.74 in 10.0 mi SE 4.6 mph - N/A   Clear
1:53 AM 61.0 °F - 59.0 °F 93% 29.73 in 10.0 mi East 4.6 mph - N/A   Clear
2:53 AM 60.1 °F - 59.0 °F 96% 29.70 in 10.0 mi East 5.8 mph - N/A   Clear
3:53 AM 57.9 °F - 57.0 °F 97% 29.70 in 10.0 mi East 5.8 mph - N/A   Clear
4:44 AM 59.0 °F - 57.9 °F 96% 29.82 in 8.0 mi Calm Calm - N/A   Scattered Clouds
4:49 AM 59.0 °F - 57.2 °F 94% 29.82 in 2.5 mi Calm Calm - N/A   Mostly Cloudy
4:53 AM 59.0 °F - 57.9 °F 96% 29.70 in 0.5 mi Calm Calm - N/A Fog Fog
5:02 AM 59.0 °F - 57.9 °F 96% 29.82 in 0.2 mi Variable 3.5 mph - N/A Fog Fog
5:53 AM 57.0 °F - 57.0 °F 100% 29.71 in 0.2 mi WNW 5.8 mph - N/A Fog Fog
5:58 AM 57.0 °F - 55.9 °F 96% 29.83 in 1.0 mi WNW 5.8 mph - N/A   Mist
6:03 AM 57.0 °F - 55.9 °F 96% 29.83 in 3.0 mi NW 6.9 mph - N/A   Scattered Clouds
6:53 AM 57.0 °F - 55.9 °F 96% 29.74 in 10.0 mi NW 8.1 mph - N/A   Clear
7:08 AM 57.0 °F - 57.0 °F 100% 29.84 in 4.0 mi NW 6.9 mph - N/A   Scattered Clouds
7:11 AM 57.2 °F - 55.4 °F 94% 29.84 in 1.2 mi NW 6.9 mph - N/A   Mostly Cloudy
7:17 AM 57.0 °F - 55.9 °F 96% 29.85 in 0.2 mi WNW 8.1 mph - N/A Fog Fog
7:53 AM 57.0 °F - 57.0 °F 100% 29.74 in 0.2 mi WNW 5.8 mph - N/A Fog Fog
8:19 AM 59.0 °F - 57.9 °F 96% 29.85 in 0.5 mi WNW 6.9 mph - N/A Fog Fog
8:35 AM 60.1 °F - 59.0 °F 96% 29.85 in 2.0 mi NW 5.8 mph - N/A   Overcast
8:43 AM 60.1 °F - 59.0 °F 96% 29.85 in 6.0 mi WNW 6.9 mph - N/A   Mostly Cloudy
8:53 AM 60.1 °F - 59.0 °F 96% 29.75 in 8.0 mi NW 4.6 mph - N/A   Scattered Clouds
9:53 AM 72.0 °F - 60.1 °F 66% 29.71 in 10.0 mi WNW 8.1 mph - N/A   Clear
10:53 AM 78.1 °F - 55.9 °F 46% 29.70 in 10.0 mi WNW 8.1 mph - N/A   Clear
11:53 AM 84.0 °F - 51.1 °F 32% 29.66 in 10.0 mi West 12.7 mph - N/A   Clear
12:53 PM 84.9 °F - 48.0 °F 28% 29.64 in 10.0 mi West 6.9 mph - N/A   Clear
1:53 PM 89.1 °F - 48.9 °F 25% 29.61 in 10.0 mi North 4.6 mph - N/A   Clear
2:53 PM 90.0 °F - 46.9 °F 23% 29.59 in 10.0 mi South 4.6 mph - N/A   Clear
3:53 PM 82.9 °F 82.6 °F 57.9 °F 42% 29.60 in 10.0 mi ESE 5.8 mph - N/A   Clear
4:53 PM 78.1 °F - 57.0 °F 48% 29.62 in 10.0 mi SSW 5.8 mph - 0.00 in Rain Light Rain
5:53 PM 82.0 °F - 46.9 °F 29% 29.58 in 10.0 mi SSW 4.6 mph - 0.00 in   Clear
6:53 PM 81.0 °F 80.7 °F 55.0 °F 41% 29.58 in 10.0 mi NNE 5.8 mph - N/A   Clear
7:53 PM 73.9 °F - 55.9 °F 53% 29.64 in 10.0 mi East 5.8 mph - N/A   Clear
8:53 PM 66.9 °F - 60.1 °F 79% 29.71 in 10.0 mi NNE 25.3 mph 31.1 mph N/A   Clear
9:53 PM 64.0 °F - 57.9 °F 80% 29.74 in 10.0 mi NNE 27.6 mph 40.3 mph N/A   Mostly Cloudy
10:27 PM 63.0 °F - 57.9 °F 84% 29.89 in 10.0 mi NE 17.3 mph 29.9 mph N/A   Scattered Clouds
10:53 PM 63.0 °F - 57.9 °F 84% 29.80 in 10.0 mi Variable 3.5 mph - N/A   Mostly Cloudy
11:53 PM 63.0 °F - 57.9 °F 84% 29.81 in 10.0 mi NNE 10.4 mph - N/A   Overcast